Time,TemperatureF,DewpointF,PressureIn,WindDirection,WindDirectionDegrees,WindSpeedMPH,WindSpeedGustMPH,Humidity,HourlyPrecipIn,Conditions,Clouds,dailyrainin,SoftwareType,DateUTC
2014-12-28 00:03:00,46.8,46.0,30.09,SW,223,0.0,0.0,97,0.03,,---,0.00,VWS V15.00,2014-12-28 05:03:00,
2014-12-28 00:07:00,46.8,46.0,30.10,SW,223,0.0,0.0,97,0.02,,---,0.00,VWS V15.00,2014-12-28 05:07:00,
2014-12-28 00:12:00,46.8,46.0,30.09,SW,223,0.0,0.0,97,0.03,,---,0.01,VWS V15.00,2014-12-28 05:12:00,
2014-12-28 00:18:00,46.8,46.0,30.09,SW,223,0.0,0.0,97,0.03,,---,0.01,VWS V15.00,2014-12-28 05:18:00,
2014-12-28 00:22:00,46.8,46.0,30.09,SW,223,0.0,0.0,97,0.03,,---,0.01,VWS V15.00,2014-12-28 05:22:00,
2014-12-28 00:27:00,46.7,45.9,30.08,SW,223,0.0,0.0,97,0.02,,---,0.02,VWS V15.00,2014-12-28 05:27:00,
2014-12-28 00:32:00,46.7,45.9,30.08,SW,223,0.0,0.0,97,0.02,,---,0.02,VWS V15.00,2014-12-28 05:32:00,
2014-12-28 00:37:00,46.7,45.9,30.08,SW,223,0.0,0.0,97,0.03,,---,0.03,VWS V15.00,2014-12-28 05:37:00,
2014-12-28 00:42:00,46.6,45.8,30.07,SW,223,0.0,0.0,97,0.03,,---,0.03,VWS V15.00,2014-12-28 05:42:00,
2014-12-28 00:47:00,46.6,45.8,30.07,SW,223,0.0,0.0,97,0.04,,---,0.04,VWS V15.00,2014-12-28 05:47:00,
2014-12-28 00:52:00,46.6,45.8,30.07,SW,223,1.0,2.0,97,0.04,,---,0.04,VWS V15.00,2014-12-28 05:52:00,
2014-12-28 00:57:00,46.3,45.5,30.06,SW,223,0.0,0.0,97,0.04,,---,0.04,VWS V15.00,2014-12-28 05:57:00,
2014-12-28 01:02:00,46.0,45.2,30.06,SW,223,0.0,0.0,97,0.04,,---,0.04,VWS V15.00,2014-12-28 06:02:00,
2014-12-28 01:07:00,45.6,44.8,30.07,SW,223,1.0,1.0,97,0.04,,---,0.04,VWS V15.00,2014-12-28 06:07:00,
2014-12-28 01:12:00,45.4,44.6,30.08,SW,223,1.0,1.0,97,0.04,,---,0.04,VWS V15.00,2014-12-28 06:12:00,
2014-12-28 01:17:00,45.2,44.4,30.08,SW,223,0.0,0.0,97,0.03,,---,0.04,VWS V15.00,2014-12-28 06:17:00,
2014-12-28 01:22:00,44.9,44.1,30.06,SW,223,0.0,0.0,97,0.04,,---,0.05,VWS V15.00,2014-12-28 06:22:00,
2014-12-28 01:27:00,44.7,43.9,30.06,SW,223,0.0,0.0,97,0.05,,---,0.06,VWS V15.00,2014-12-28 06:27:00,
2014-12-28 01:32:00,44.5,43.7,30.04,SW,223,0.0,0.0,97,0.05,,---,0.07,VWS V15.00,2014-12-28 06:32:00,
2014-12-28 01:37:00,44.3,43.5,30.03,SW,223,0.0,0.0,97,0.05,,---,0.08,VWS V15.00,2014-12-28 06:37:00,
2014-12-28 01:42:00,44.2,43.4,30.03,SW,223,0.0,0.0,97,0.06,,---,0.09,VWS V15.00,2014-12-28 06:42:00,
2014-12-28 01:47:00,44.1,43.3,30.04,SW,223,0.0,0.0,97,0.06,,---,0.09,VWS V15.00,2014-12-28 06:47:00,
2014-12-28 01:52:00,44.0,43.2,30.04,SW,223,0.0,0.0,97,0.05,,---,0.09,VWS V15.00,2014-12-28 06:52:00,
2014-12-28 01:57:00,44.0,43.2,30.05,SW,223,0.0,0.0,97,0.05,,---,0.09,VWS V15.00,2014-12-28 06:57:00,
2014-12-28 02:02:00,43.9,43.1,30.04,SW,223,0.0,0.0,97,0.05,,---,0.09,VWS V15.00,2014-12-28 07:02:00,
2014-12-28 02:07:00,43.8,43.0,30.04,SW,223,0.0,0.0,97,0.05,,---,0.09,VWS V15.00,2014-12-28 07:07:00,
2014-12-28 02:12:00,43.6,42.8,30.04,SW,223,0.0,0.0,97,0.05,,---,0.09,VWS V15.00,2014-12-28 07:12:00,
2014-12-28 02:17:00,43.5,42.7,30.05,SW,223,0.0,0.0,97,0.05,,---,0.09,VWS V15.00,2014-12-28 07:17:00,
2014-12-28 02:22:00,43.3,42.5,30.06,SW,223,0.0,1.0,97,0.04,,---,0.09,VWS V15.00,2014-12-28 07:22:00,
2014-12-28 02:27:00,43.2,42.4,30.07,SW,223,1.0,1.0,97,0.03,,---,0.09,VWS V15.00,2014-12-28 07:27:00,
2014-12-28 02:32:00,43.1,42.3,30.07,SW,223,0.0,0.0,97,0.03,,---,0.09,VWS V15.00,2014-12-28 07:32:00,
2014-12-28 02:37:00,42.9,42.1,30.08,NW,320,2.0,4.0,97,0.01,,---,0.09,VWS V15.00,2014-12-28 07:37:00,
2014-12-28 02:42:00,42.6,41.8,30.08,WNW,302,0.0,3.0,97,0.00,,---,0.09,VWS V15.00,2014-12-28 07:42:00,
2014-12-28 02:47:00,42.2,41.4,30.08,West,270,1.0,2.0,97,0.00,,---,0.09,VWS V15.00,2014-12-28 07:47:00,
2014-12-28 02:52:00,41.9,41.1,30.09,WNW,287,0.0,2.0,97,0.00,,---,0.09,VWS V15.00,2014-12-28 07:52:00,
2014-12-28 02:57:00,41.7,40.9,30.09,WSW,257,0.0,4.0,97,0.00,,---,0.09,VWS V15.00,2014-12-28 07:57:00,
2014-12-28 03:02:00,41.4,40.3,30.09,West,279,0.0,2.0,96,0.00,,---,0.09,VWS V15.00,2014-12-28 08:02:00,
2014-12-28 03:07:00,41.0,40.2,30.09,WNW,287,2.0,3.0,97,0.00,,---,0.09,VWS V15.00,2014-12-28 08:07:00,
2014-12-28 03:12:00,40.5,39.5,30.10,WNW,283,0.0,2.0,96,0.00,,---,0.09,VWS V15.00,2014-12-28 08:12:00,
2014-12-28 03:17:00,40.1,39.0,30.09,WNW,286,2.0,2.0,96,0.00,,---,0.09,VWS V15.00,2014-12-28 08:17:00,
2014-12-28 03:22:00,39.9,38.8,30.10,WNW,286,0.0,2.0,96,0.00,,---,0.09,VWS V15.00,2014-12-28 08:22:00,
2014-12-28 03:27:00,39.7,38.7,30.10,WNW,286,0.0,1.0,96,0.00,,---,0.09,VWS V15.00,2014-12-28 08:27:00,
2014-12-28 03:32:00,39.4,38.4,30.10,NNE,31,0.0,0.0,96,0.00,,---,0.09,VWS V15.00,2014-12-28 08:32:00,
2014-12-28 03:37:00,39.2,38.2,30.10,North,11,0.0,0.0,96,0.00,,---,0.09,VWS V15.00,2014-12-28 08:37:00,
2014-12-28 03:42:00,39.1,38.1,30.10,North,11,0.0,0.0,96,0.00,,---,0.09,VWS V15.00,2014-12-28 08:42:00,
2014-12-28 03:47:00,39.1,38.1,30.09,North,11,0.0,0.0,96,0.00,,---,0.09,VWS V15.00,2014-12-28 08:47:00,
2014-12-28 03:52:00,39.0,38.0,30.10,North,11,0.0,0.0,96,0.00,,---,0.09,VWS V15.00,2014-12-28 08:52:00,
2014-12-28 03:57:00,39.0,38.0,30.10,North,11,0.0,0.0,96,0.00,,---,0.09,VWS V15.00,2014-12-28 08:57:00,
2014-12-28 04:02:00,39.0,38.0,30.10,North,11,0.0,0.0,96,0.00,,---,0.09,VWS V15.00,2014-12-28 09:02:00,
2014-12-28 04:07:00,39.0,38.0,30.10,North,11,0.0,0.0,96,0.00,,---,0.09,VWS V15.00,2014-12-28 09:07:00,
2014-12-28 04:12:00,38.9,37.9,30.10,North,11,1.0,1.0,96,0.00,,---,0.09,VWS V15.00,2014-12-28 09:12:00,
2014-12-28 04:17:00,38.8,37.8,30.10,North,11,0.0,0.0,96,0.00,,---,0.09,VWS V15.00,2014-12-28 09:17:00,
2014-12-28 04:22:00,38.7,37.7,30.10,West,272,1.0,2.0,96,0.00,,---,0.09,VWS V15.00,2014-12-28 09:22:00,
2014-12-28 04:27:00,38.5,37.5,30.10,WNW,292,0.0,1.0,96,0.00,,---,0.09,VWS V15.00,2014-12-28 09:27:00,
2014-12-28 04:32:00,38.4,37.4,30.11,NW,316,1.0,1.0,96,0.00,,---,0.09,VWS V15.00,2014-12-28 09:32:00,
2014-12-28 04:37:00,38.2,37.2,30.11,NW,307,0.0,2.0,96,0.00,,---,0.09,VWS V15.00,2014-12-28 09:37:00,
2014-12-28 04:42:00,38.1,37.1,30.12,NW,307,0.0,0.0,96,0.00,,---,0.09,VWS V15.00,2014-12-28 09:42:00,
2014-12-28 04:47:00,38.0,37.0,30.12,NW,307,0.0,0.0,96,0.00,,---,0.09,VWS V15.00,2014-12-28 09:47:00,
2014-12-28 04:52:00,38.0,37.0,30.12,NW,307,0.0,0.0,96,0.00,,---,0.09,VWS V15.00,2014-12-28 09:52:00,
2014-12-28 04:57:00,38.0,37.0,30.12,NW,307,0.0,0.0,96,0.00,,---,0.09,VWS V15.00,2014-12-28 09:57:00,
2014-12-28 05:02:00,37.9,36.9,30.12,NW,307,0.0,1.0,96,0.00,,---,0.09,VWS V15.00,2014-12-28 10:02:00,
2014-12-28 05:07:00,37.7,36.7,30.12,WNW,295,1.0,1.0,96,0.00,,---,0.09,VWS V15.00,2014-12-28 10:07:00,
2014-12-28 05:12:00,37.5,36.5,30.12,WNW,295,0.0,0.0,96,0.00,,---,0.09,VWS V15.00,2014-12-28 10:12:00,
2014-12-28 05:17:00,37.3,36.3,30.12,WNW,295,0.0,0.0,96,0.00,,---,0.09,VWS V15.00,2014-12-28 10:17:00,
2014-12-28 05:22:00,37.2,36.2,30.13,WNW,295,0.0,0.0,96,0.00,,---,0.09,VWS V15.00,2014-12-28 10:22:00,
2014-12-28 05:27:00,37.1,36.1,30.13,WNW,295,0.0,0.0,96,0.00,,---,0.09,VWS V15.00,2014-12-28 10:27:00,
2014-12-28 05:32:00,37.1,36.1,30.13,WNW,295,0.0,0.0,96,0.00,,---,0.09,VWS V15.00,2014-12-28 10:32:00,
2014-12-28 05:37:00,37.0,36.0,30.13,WNW,295,0.0,0.0,96,0.00,,---,0.09,VWS V15.00,2014-12-28 10:37:00,
2014-12-28 05:42:00,36.8,35.8,30.13,North,6,0.0,0.0,96,0.00,,---,0.09,VWS V15.00,2014-12-28 10:42:00,
2014-12-28 05:47:00,36.6,35.6,30.14,North,6,0.0,0.0,96,0.00,,---,0.09,VWS V15.00,2014-12-28 10:47:00,
2014-12-28 05:52:00,36.4,35.4,30.14,North,6,0.0,0.0,96,0.00,,---,0.09,VWS V15.00,2014-12-28 10:52:00,
2014-12-28 05:57:00,36.3,35.3,30.14,North,6,0.0,0.0,96,0.00,,---,0.09,VWS V15.00,2014-12-28 10:57:00,
2014-12-28 06:02:00,36.2,35.2,30.14,North,351,0.0,0.0,96,0.00,,---,0.09,VWS V15.00,2014-12-28 11:02:00,
2014-12-28 06:07:00,36.0,35.0,30.14,North,351,1.0,1.0,96,0.00,,---,0.09,VWS V15.00,2014-12-28 11:07:00,
2014-12-28 06:12:00,35.9,34.9,30.15,North,351,0.0,2.0,96,0.00,,---,0.09,VWS V15.00,2014-12-28 11:12:00,
2014-12-28 06:17:00,35.7,34.7,30.15,West,276,0.0,0.0,96,0.00,,---,0.09,VWS V15.00,2014-12-28 11:17:00,
2014-12-28 06:22:00,35.6,34.6,30.15,WSW,250,0.0,0.0,96,0.00,,---,0.09,VWS V15.00,2014-12-28 11:22:00,
2014-12-28 06:27:00,35.5,34.5,30.15,WSW,250,1.0,1.0,96,0.00,,---,0.09,VWS V15.00,2014-12-28 11:27:00,
2014-12-28 06:32:00,35.5,34.5,30.15,WSW,250,0.0,0.0,96,0.00,,---,0.09,VWS V15.00,2014-12-28 11:32:00,
2014-12-28 06:37:00,35.4,34.4,30.16,WSW,250,0.0,0.0,96,0.00,,---,0.09,VWS V15.00,2014-12-28 11:37:00,
2014-12-28 06:42:00,35.4,34.4,30.16,WSW,250,0.0,1.0,96,0.00,,---,0.09,VWS V15.00,2014-12-28 11:42:00,
2014-12-28 06:47:00,35.3,34.3,30.16,WSW,250,0.0,0.0,96,0.00,,---,0.09,VWS V15.00,2014-12-28 11:47:00,
2014-12-28 06:52:00,35.4,34.4,30.15,WSW,250,0.0,0.0,96,0.00,,---,0.09,VWS V15.00,2014-12-28 11:52:00,
2014-12-28 06:57:00,35.3,34.3,30.15,WSW,250,1.0,1.0,96,0.00,,---,0.09,VWS V15.00,2014-12-28 11:57:00,
2014-12-28 07:02:00,35.2,34.2,30.16,WSW,250,0.0,0.0,96,0.01,,---,0.10,VWS V15.00,2014-12-28 12:02:00,
2014-12-28 07:07:00,35.2,34.2,30.15,WSW,250,0.0,0.0,96,0.01,,---,0.10,VWS V15.00,2014-12-28 12:07:00,
2014-12-28 07:12:00,35.2,34.2,30.15,WSW,250,0.0,0.0,96,0.01,,---,0.10,VWS V15.00,2014-12-28 12:12:00,
2014-12-28 07:17:00,35.3,34.3,30.15,WSW,250,0.0,0.0,96,0.01,,---,0.10,VWS V15.00,2014-12-28 12:17:00,
2014-12-28 07:22:00,35.3,34.3,30.15,WSW,250,1.0,2.0,96,0.01,,---,0.10,VWS V15.00,2014-12-28 12:22:00,
2014-12-28 07:27:00,35.3,34.3,30.15,WSW,253,0.0,0.0,96,0.01,,---,0.10,VWS V15.00,2014-12-28 12:27:00,
2014-12-28 07:32:00,35.2,34.2,30.15,WSW,253,0.0,0.0,96,0.01,,---,0.10,VWS V15.00,2014-12-28 12:32:00,
2014-12-28 07:37:00,35.2,34.2,30.15,WSW,253,0.0,0.0,96,0.01,,---,0.10,VWS V15.00,2014-12-28 12:37:00,
2014-12-28 07:42:00,35.1,34.1,30.16,WSW,253,0.0,0.0,96,0.01,,---,0.10,VWS V15.00,2014-12-28 12:42:00,
2014-12-28 07:47:00,35.1,34.1,30.15,WSW,253,0.0,0.0,96,0.01,,---,0.10,VWS V15.00,2014-12-28 12:47:00,
2014-12-28 07:52:00,35.1,34.1,30.15,WSW,253,0.0,0.0,96,0.01,,---,0.10,VWS V15.00,2014-12-28 12:52:00,
2014-12-28 07:57:00,35.0,34.0,30.15,North,356,0.0,0.0,96,0.01,,---,0.10,VWS V15.00,2014-12-28 12:57:00,
2014-12-28 08:02:00,34.9,33.9,30.15,North,356,0.0,0.0,96,0.00,,---,0.10,VWS V15.00,2014-12-28 13:02:00,
2014-12-28 08:07:00,34.9,33.9,30.15,North,356,0.0,0.0,96,0.00,,---,0.10,VWS V15.00,2014-12-28 13:07:00,
2014-12-28 08:12:00,34.9,33.9,30.15,North,356,0.0,0.0,96,0.00,,---,0.10,VWS V15.00,2014-12-28 13:12:00,
2014-12-28 08:17:00,34.9,33.9,30.16,North,360,0.0,0.0,96,0.00,,---,0.10,VWS V15.00,2014-12-28 13:17:00,
2014-12-28 08:22:00,34.9,33.9,30.16,North,360,0.0,0.0,96,0.00,,---,0.10,VWS V15.00,2014-12-28 13:22:00,
2014-12-28 08:26:00,34.8,33.8,30.16,North,360,0.0,1.0,96,0.00,,---,0.10,VWS V15.00,2014-12-28 13:26:00,
2014-12-28 08:31:00,34.7,33.7,30.16,North,360,0.0,0.0,96,0.00,,---,0.10,VWS V15.00,2014-12-28 13:31:00,
2014-12-28 08:36:00,34.7,33.7,30.16,North,360,0.0,2.0,96,0.00,,---,0.10,VWS V15.00,2014-12-28 13:36:00,
2014-12-28 08:41:00,34.6,33.6,30.17,North,360,0.0,0.0,96,0.00,,---,0.10,VWS V15.00,2014-12-28 13:41:00,
2014-12-28 08:46:00,34.6,33.6,30.17,North,360,0.0,1.0,96,0.00,,---,0.10,VWS V15.00,2014-12-28 13:46:00,
2014-12-28 08:51:00,34.7,33.7,30.17,NNE,28,0.0,0.0,96,0.00,,---,0.10,VWS V15.00,2014-12-28 13:51:00,
2014-12-28 08:56:00,34.7,33.7,30.17,NNE,28,0.0,0.0,96,0.00,,---,0.10,VWS V15.00,2014-12-28 13:56:00,
2014-12-28 09:01:00,34.7,33.7,30.18,NNE,28,0.0,0.0,96,0.00,,---,0.10,VWS V15.00,2014-12-28 14:01:00,
2014-12-28 09:06:00,34.6,33.6,30.18,NNE,28,0.0,0.0,96,0.00,,---,0.10,VWS V15.00,2014-12-28 14:06:00,
2014-12-28 09:11:00,34.6,33.6,30.19,NNE,28,0.0,1.0,96,0.00,,---,0.10,VWS V15.00,2014-12-28 14:11:00,
2014-12-28 09:16:00,34.6,33.6,30.20,NNE,28,0.0,1.0,96,0.00,,---,0.10,VWS V15.00,2014-12-28 14:16:00,
2014-12-28 09:21:00,34.5,33.5,30.19,NNE,28,0.0,0.0,96,0.00,,---,0.10,VWS V15.00,2014-12-28 14:21:00,
2014-12-28 09:26:00,34.5,33.5,30.19,NNE,28,0.0,0.0,96,0.00,,---,0.10,VWS V15.00,2014-12-28 14:26:00,
2014-12-28 09:31:00,34.5,33.5,30.18,NNE,28,0.0,0.0,96,0.00,,---,0.10,VWS V15.00,2014-12-28 14:31:00,
2014-12-28 09:36:00,34.5,33.5,30.18,NNE,28,0.0,1.0,96,0.00,,---,0.10,VWS V15.00,2014-12-28 14:36:00,
2014-12-28 09:41:00,34.4,33.4,30.18,NNE,28,0.0,0.0,96,0.00,,---,0.10,VWS V15.00,2014-12-28 14:41:00,
2014-12-28 09:46:00,34.3,33.3,30.18,NNE,28,0.0,0.0,96,0.00,,---,0.10,VWS V15.00,2014-12-28 14:46:00,
2014-12-28 09:51:00,34.3,33.3,30.18,NNE,28,0.0,0.0,96,0.00,,---,0.10,VWS V15.00,2014-12-28 14:51:00,
2014-12-28 09:56:00,34.4,33.4,30.20,NNE,28,0.0,0.0,96,0.00,,---,0.10,VWS V15.00,2014-12-28 14:56:00,
2014-12-28 10:01:00,34.3,33.3,30.21,NNE,28,0.0,0.0,96,0.00,,---,0.10,VWS V15.00,2014-12-28 15:01:00,
2014-12-28 10:06:00,34.2,32.9,30.22,WNW,290,0.0,0.0,95,0.00,,---,0.10,VWS V15.00,2014-12-28 15:06:00,
2014-12-28 10:11:00,34.2,33.2,30.24,WNW,290,0.0,0.0,96,0.00,,---,0.10,VWS V15.00,2014-12-28 15:11:00,
2014-12-28 10:16:00,34.2,32.9,30.22,WNW,287,1.0,3.0,95,0.00,,---,0.10,VWS V15.00,2014-12-28 15:16:00,
2014-12-28 10:21:00,34.0,32.7,30.24,WNW,287,1.0,2.0,95,0.00,,---,0.10,VWS V15.00,2014-12-28 15:21:00,
2014-12-28 10:26:00,33.9,32.6,30.24,WNW,287,0.0,1.0,95,0.00,,---,0.10,VWS V15.00,2014-12-28 15:26:00,
2014-12-28 10:31:00,33.9,32.6,30.24,NW,314,0.0,0.0,95,0.00,,---,0.10,VWS V15.00,2014-12-28 15:31:00,
2014-12-28 10:36:00,33.9,32.6,30.23,NW,314,0.0,0.0,95,0.00,,---,0.10,VWS V15.00,2014-12-28 15:36:00,
2014-12-28 10:41:00,33.9,32.6,30.22,NW,314,0.0,0.0,95,0.00,,---,0.10,VWS V15.00,2014-12-28 15:41:00,
2014-12-28 10:46:00,33.9,32.4,30.21,NW,306,0.0,0.0,94,0.00,,---,0.10,VWS V15.00,2014-12-28 15:46:00,
2014-12-28 10:51:00,33.8,32.3,30.20,NW,310,0.0,0.0,94,0.00,,---,0.10,VWS V15.00,2014-12-28 15:51:00,
2014-12-28 10:56:00,33.8,32.3,30.21,NW,310,0.0,0.0,94,0.00,,---,0.10,VWS V15.00,2014-12-28 15:56:00,
2014-12-28 11:01:00,33.8,32.3,30.20,NW,310,0.0,0.0,94,0.00,,---,0.10,VWS V15.00,2014-12-28 16:01:00,
2014-12-28 11:06:00,34.1,32.6,30.20,NW,310,0.0,0.0,94,0.00,,---,0.10,VWS V15.00,2014-12-28 16:06:00,
2014-12-28 11:11:00,34.3,32.8,30.21,NNW,346,0.0,0.0,94,0.00,,---,0.10,VWS V15.00,2014-12-28 16:11:00,
2014-12-28 11:16:00,34.5,33.0,30.21,NNW,346,0.0,0.0,94,0.00,,---,0.10,VWS V15.00,2014-12-28 16:16:00,
2014-12-28 11:21:00,34.7,33.2,30.20,NNW,346,0.0,0.0,94,0.00,,---,0.10,VWS V15.00,2014-12-28 16:21:00,
2014-12-28 11:26:00,34.8,33.2,30.21,North,3,0.0,0.0,94,0.00,,---,0.10,VWS V15.00,2014-12-28 16:26:00,
2014-12-28 11:31:00,34.8,33.0,30.21,NW,316,0.0,0.0,93,0.00,,---,0.10,VWS V15.00,2014-12-28 16:31:00,
2014-12-28 11:36:00,35.0,33.2,30.21,NW,316,0.0,1.0,93,0.00,,---,0.10,VWS V15.00,2014-12-28 16:36:00,
2014-12-28 11:41:00,35.1,33.0,30.21,NW,317,1.0,1.0,92,0.00,,---,0.10,VWS V15.00,2014-12-28 16:41:00,
2014-12-28 11:46:00,35.1,32.7,30.21,NW,317,0.0,0.0,91,0.00,,---,0.10,VWS V15.00,2014-12-28 16:46:00,
2014-12-28 11:51:00,35.3,32.9,30.21,NW,316,0.0,0.0,91,0.00,,---,0.10,VWS V15.00,2014-12-28 16:51:00,
2014-12-28 11:56:00,35.3,32.7,30.20,NW,317,0.0,1.0,90,0.00,,---,0.10,VWS V15.00,2014-12-28 16:56:00,
2014-12-28 12:01:00,35.5,32.9,30.20,NW,317,0.0,0.0,90,0.00,,---,0.10,VWS V15.00,2014-12-28 17:01:00,
2014-12-28 12:06:00,35.5,32.6,30.20,NNW,340,0.0,0.0,89,0.00,,---,0.10,VWS V15.00,2014-12-28 17:06:00,
2014-12-28 12:11:00,35.6,32.7,30.20,NNW,335,0.0,1.0,89,0.00,,---,0.10,VWS V15.00,2014-12-28 17:11:00,
2014-12-28 12:16:00,35.5,32.6,30.19,NNW,335,0.0,0.0,89,0.00,,---,0.10,VWS V15.00,2014-12-28 17:16:00,
2014-12-28 12:21:00,35.7,32.8,30.19,WNW,282,0.0,1.0,89,0.00,,---,0.10,VWS V15.00,2014-12-28 17:21:00,
2014-12-28 12:26:00,35.8,32.9,30.19,NNW,333,1.0,1.0,89,0.00,,---,0.10,VWS V15.00,2014-12-28 17:26:00,
2014-12-28 12:31:00,35.9,32.7,30.19,NNW,332,0.0,2.0,88,0.00,,---,0.10,VWS V15.00,2014-12-28 17:31:00,
2014-12-28 12:36:00,35.8,32.3,30.19,NNW,332,0.0,1.0,87,0.00,,---,0.10,VWS V15.00,2014-12-28 17:36:00,
2014-12-28 12:41:00,35.8,32.3,30.18,NNW,332,0.0,0.0,87,0.00,,---,0.10,VWS V15.00,2014-12-28 17:41:00,
2014-12-28 12:46:00,35.8,32.6,30.19,NNW,332,0.0,1.0,88,0.00,,---,0.10,VWS V15.00,2014-12-28 17:46:00,
2014-12-28 12:51:00,35.8,32.3,30.18,WSW,248,0.0,1.0,87,0.00,,---,0.10,VWS V15.00,2014-12-28 17:51:00,
2014-12-28 12:56:00,35.9,32.4,30.18,WSW,248,0.0,0.0,87,0.00,,---,0.10,VWS V15.00,2014-12-28 17:56:00,
2014-12-28 13:01:00,36.0,33.9,30.19,West,281,0.0,1.0,92,0.00,,---,0.10,VWS V15.00,2014-12-28 18:01:00,
2014-12-28 13:06:00,36.0,32.2,30.19,West,281,0.0,1.0,86,0.00,,---,0.10,VWS V15.00,2014-12-28 18:06:00,
2014-12-28 13:11:00,36.0,32.2,30.19,West,281,0.0,0.0,86,0.00,,---,0.10,VWS V15.00,2014-12-28 18:11:00,
2014-12-28 13:16:00,36.2,32.7,30.19,West,281,0.0,0.0,87,0.00,,---,0.10,VWS V15.00,2014-12-28 18:16:00,
2014-12-28 13:21:00,36.2,32.7,30.19,West,281,0.0,0.0,87,0.00,,---,0.10,VWS V15.00,2014-12-28 18:21:00,
2014-12-28 13:26:00,36.2,32.4,30.19,West,281,0.0,0.0,86,0.00,,---,0.10,VWS V15.00,2014-12-28 18:26:00,
2014-12-28 13:31:00,36.3,32.5,30.18,West,281,0.0,0.0,86,0.00,,---,0.10,VWS V15.00,2014-12-28 18:31:00,
2014-12-28 13:36:00,36.4,32.6,30.18,West,281,0.0,0.0,86,0.00,,---,0.10,VWS V15.00,2014-12-28 18:36:00,
2014-12-28 13:41:00,36.3,32.5,30.19,West,281,0.0,1.0,86,0.00,,---,0.10,VWS V15.00,2014-12-28 18:41:00,
2014-12-28 13:46:00,36.3,32.5,30.19,NE,39,0.0,1.0,86,0.00,,---,0.10,VWS V15.00,2014-12-28 18:46:00,
2014-12-28 13:51:00,36.4,32.6,30.18,NE,40,0.0,0.0,86,0.00,,---,0.10,VWS V15.00,2014-12-28 18:51:00,
2014-12-28 13:56:00,36.4,32.6,30.17,NE,40,1.0,1.0,86,0.00,,---,0.10,VWS V15.00,2014-12-28 18:56:00,
2014-12-28 14:01:00,36.4,32.6,30.18,NE,40,0.0,0.0,86,0.00,,---,0.10,VWS V15.00,2014-12-28 19:01:00,
2014-12-28 14:06:00,36.3,32.5,30.17,NE,40,0.0,0.0,86,0.00,,---,0.10,VWS V15.00,2014-12-28 19:06:00,
2014-12-28 14:11:00,36.2,32.1,30.19,NE,40,0.0,0.0,85,0.00,,---,0.10,VWS V15.00,2014-12-28 19:11:00,
2014-12-28 14:16:00,36.2,32.4,30.19,NNE,27,0.0,1.0,86,0.00,,---,0.10,VWS V15.00,2014-12-28 19:16:00,
2014-12-28 14:21:00,36.2,32.4,30.19,NNE,27,1.0,1.0,86,0.00,,---,0.10,VWS V15.00,2014-12-28 19:21:00,
2014-12-28 14:26:00,36.3,32.2,30.19,NNE,27,1.0,1.0,85,0.00,,---,0.10,VWS V15.00,2014-12-28 19:26:00,
2014-12-28 14:31:00,36.3,32.2,30.19,NNE,27,0.0,1.0,85,0.00,,---,0.10,VWS V15.00,2014-12-28 19:31:00,
2014-12-28 14:36:00,36.3,31.9,30.19,NNE,27,1.0,1.0,84,0.00,,---,0.10,VWS V15.00,2014-12-28 19:36:00,
2014-12-28 14:41:00,36.3,31.9,30.18,NNE,27,2.0,2.0,84,0.00,,---,0.10,VWS V15.00,2014-12-28 19:41:00,
2014-12-28 14:46:00,36.4,32.3,30.18,NNE,27,0.0,1.0,85,0.00,,---,0.10,VWS V15.00,2014-12-28 19:46:00,
2014-12-28 14:51:00,36.6,32.5,30.20,NNE,27,0.0,0.0,85,0.00,,---,0.10,VWS V15.00,2014-12-28 19:51:00,
2014-12-28 14:56:00,36.7,32.3,30.20,NNE,27,0.0,0.0,84,0.00,,---,0.10,VWS V15.00,2014-12-28 19:56:00,
2014-12-28 15:01:00,36.7,32.3,30.20,NNE,27,0.0,1.0,84,0.00,,---,0.10,VWS V15.00,2014-12-28 20:01:00,
2014-12-28 15:06:00,36.8,32.4,30.20,NNE,27,0.0,0.0,84,0.00,,---,0.10,VWS V15.00,2014-12-28 20:06:00,
2014-12-28 15:11:00,36.9,32.5,30.19,NNE,27,0.0,0.0,84,0.00,,---,0.10,VWS V15.00,2014-12-28 20:11:00,
2014-12-28 15:16:00,37.0,32.3,30.19,NNE,27,0.0,0.0,83,0.00,,---,0.10,VWS V15.00,2014-12-28 20:16:00,
2014-12-28 15:21:00,36.9,31.9,30.20,NNE,27,0.0,0.0,82,0.00,,---,0.10,VWS V15.00,2014-12-28 20:21:00,
2014-12-28 15:26:00,37.0,32.0,30.20,NNE,27,0.0,0.0,82,0.00,,---,0.10,VWS V15.00,2014-12-28 20:26:00,
2014-12-28 15:31:00,37.0,32.3,30.21,NNE,27,0.0,0.0,83,0.00,,---,0.10,VWS V15.00,2014-12-28 20:31:00,
2014-12-28 15:36:00,36.9,32.2,30.20,NNE,27,0.0,0.0,83,0.00,,---,0.10,VWS V15.00,2014-12-28 20:36:00,
2014-12-28 15:41:00,36.8,31.8,30.21,NNE,29,0.0,0.0,82,0.00,,---,0.10,VWS V15.00,2014-12-28 20:41:00,
2014-12-28 15:46:00,36.8,32.1,30.21,NNE,29,0.0,0.0,83,0.00,,---,0.10,VWS V15.00,2014-12-28 20:46:00,
2014-12-28 15:51:00,36.9,32.2,30.22,NNE,29,0.0,0.0,83,0.00,,---,0.10,VWS V15.00,2014-12-28 20:51:00,
2014-12-28 15:56:00,36.9,32.2,30.22,NNE,29,0.0,0.0,83,0.00,,---,0.10,VWS V15.00,2014-12-28 20:56:00,
2014-12-28 16:01:00,36.9,31.9,30.22,NNE,29,0.0,0.0,82,0.00,,---,0.10,VWS V15.00,2014-12-28 21:01:00,
2014-12-28 16:06:00,36.9,31.9,30.21,NNE,29,0.0,0.0,82,0.00,,---,0.10,VWS V15.00,2014-12-28 21:06:00,
2014-12-28 16:11:00,36.9,32.2,30.21,NNE,29,0.0,0.0,83,0.00,,---,0.10,VWS V15.00,2014-12-28 21:11:00,
2014-12-28 16:16:00,36.9,32.2,30.21,NNE,29,0.0,0.0,83,0.00,,---,0.10,VWS V15.00,2014-12-28 21:16:00,
2014-12-28 16:21:00,36.9,32.2,30.21,NNE,29,0.0,0.0,83,0.00,,---,0.10,VWS V15.00,2014-12-28 21:21:00,
2014-12-28 16:26:00,36.9,32.2,30.22,NNE,29,0.0,0.0,83,0.00,,---,0.10,VWS V15.00,2014-12-28 21:26:00,
2014-12-28 16:31:00,36.9,32.5,30.22,NNE,29,0.0,0.0,84,0.00,,---,0.10,VWS V15.00,2014-12-28 21:31:00,